STARLINK-30523

operational
NORAD ID: 57997 Int'l Des: 2023-153 Owner: SPXS Country: US Constellation: starlink
LEOCIRCULAR

关于 STARLINK-30523

正在加载描述...

实时位置

正在加载3D地球...

即将过境

高度历史

Altitude vs Time

uPlot chart will show altitude changes over time

两行轨道根数

1 57997U 23153G 25251.93943533 -.00001425 00000-0 -90406-4 0 9992
2 57997 43.0044 336.5701 0001666 264.3815 95.6837 15.02537170107532
Epoch: Sep 8, 2025 • Age: 12 hours

当前状态

高度 563.3 km
速度 7.58 km/s
星下点 42.94°N, 69.65°W
发射日期 Oct 5, 2023
运行时间 1.9 years
类型 internet

技术详情

分类 Payload
质量 730.00 kg
干质量 700.00 kg
总质量 730.00 kg
长度 0.30 m
直径 4.10 m
跨度 29.00 m
形状 Box + pan
制造商 SPXS
平台类型 Starlink V2M
阶段状态 In Orbit
所有者/国家 SPXS/US

大型星座

Loading constellations...